This demonstration page uses our WeatherBlox Daily Observations layout. Learn more.

Left ArrowRight Arrow

39.92423, -83.80882

Hourly Observations for March 27, 2022

Temp ( °F °C ) Dew Point ( °F °C ) Humidity (%) Winds ( mph kmh ) Pressure ( in mb ) Visibility ( mi km ) Precip ( " mm )
12:56 am 00:56 Cloudy 29 -1.7 23 -5 78 78 WNW 18 30 29.96 1015 10 16 0.00 0.00
1:56 am 01:56 Cloudy with Light Snow 28 -2.2 21 -6.1 75 75 NW 17 28 29.97 1015 9 14 0.00 0.00
2:56 am 02:56 Cloudy with Light Snow 27 -2.8 20 -6.7 75 75 NW 15 24 29.98 1015 9 14 0.00 0.00
3:51 am 03:51 Cloudy with Light Snow 27 -3 19 -7 74 74 WNW 17 28 30.01 1016 9 14 0.00 0.00
3:56 am 03:56 Cloudy with Light Snow 27 -2.8 19 -7.2 72 72 WNW 18 30 29.98 1015 9 14 0.00 0.00
4:56 am 04:56 Cloudy with Light Snow 27 -2.8 19 -7.2 72 72 WNW 16 26 29.99 1016 9 14 0.00 0.00
5:56 am 05:56 Cloudy with Light Snow 26 -3.3 20 -6.7 78 78 WNW 15 24 30.00 1016 9 14 0.00 0.00
6:47 am 06:47 Cloudy with Light Snow 27 -3 21 -6 80 80 WNW 14 22 30.04 1017 9 14 0.00 0.00
6:56 am 06:56 Cloudy with Light Snow 26 -3.3 21 -6.1 81 81 WNW 15 24 30.02 1017 9 14 0.00 0.00
7:56 am 07:56 Cloudy with Light Snow 26 -3.3 22 -5.6 84 84 WNW 14 22 30.04 1017 6 10 0.00 0.00
8:20 am 08:20 Cloudy with Light Snow 27 -3 21 -6 80 80 NW 13 20 30.08 1019 9 14 0.00 0.00
8:28 am 08:28 Cloudy with Light Snow 27 -3 21 -6 80 80 WNW 16 26 30.08 1019 9 14 0.00 0.00
8:43 am 08:43 Cloudy with Light Snow 27 -3 23 -5 86 86 WNW 16 26 30.08 1019 9 14 0.00 0.00
8:56 am 08:56 Cloudy with Light Snow 27 -2.8 22 -5.6 81 81 WNW 17 28 30.06 1018 9 14 0.00 0.00
9:09 am 09:09 Cloudy with Light Snow 27 -3 21 -6 80 80 NNW 15 24 30.10 1019 2 3 0.00 0.00
9:11 am 09:11 Cloudy with Light Snow 27 -3 23 -5 86 86 NW 16 26 30.10 1019 1 1 0.00 0.00
9:18 am 09:18 Cloudy with Light Snow 25 -4 25 -4 100 100 WNW 13 20 30.10 1019 1 1 0.00 0.00
9:21 am 09:21 Cloudy with Light Snow 25 -4 25 -4 100 100 NW 12 19 30.10 1019 1 2 0.00 0.00
9:23 am 09:23 Cloudy with Light Snow 27 -3 25 -4 93 93 WNW 12 19 30.10 1019 4 6 0.00 0.00
9:56 am 09:56 Cloudy with Light Snow 27 -2.8 19 -7.2 72 72 NW 15 24 30.08 1019 9 14 0.00 0.00
10:56 am 10:56 Cloudy with Light Snow 29 -1.7 19 -7.2 66 66 NW 14 22 30.11 1020 9 14 0.00 0.00
11:56 am 11:56 Cloudy 30 -1.1 17 -8.3 58 58 NW 17 28 30.12 1020 10 16 0.00 0.00
12:56 pm 12:56 Cloudy 31 -0.6 18 -7.8 59 59 WNW 20 31 30.11 1020 10 16 0.00 0.00
1:56 pm 13:56 Cloudy 32 0 18 -7.8 56 56 WNW 17 28 30.11 1020 10 16 0.00 0.00
2:56 pm 14:56 Cloudy 34 1.1 18 -7.8 52 52 NW 22 35 30.10 1019 10 16 0.00 0.00
3:56 pm 15:56 Mostly Cloudy 33 0.6 17 -8.3 52 52 WNW 17 28 30.09 1019 10 16 0.00 0.00
4:56 pm 16:56 Mostly Cloudy 33 0.6 17 -8.3 52 52 WNW 16 26 30.10 1019 10 16 0.00 0.00
5:56 pm 17:56 Cloudy 33 0.6 18 -7.8 54 54 W 16 26 30.11 1020 10 16 0.00 0.00
6:56 pm 18:56 Cloudy 32 0 20 -6.7 61 61 WNW 14 22 30.13 1020 10 16 0.00 0.00
7:56 pm 19:56 Mostly Cloudy 30 -1.1 18 -7.8 61 61 WNW 12 19 30.13 1020 10 16 0.00 0.00
8:56 pm 20:56 Clear 28 -2.2 18 -7.8 66 66 NW 10 17 30.15 1021 10 16 0.00 0.00
9:56 pm 21:56 Clear 27 -2.8 17 -8.3 66 66 WNW 12 19 30.18 1022 10 16 0.00 0.00
10:56 pm 22:56 Clear 25 -3.9 17 -8.3 72 72 NW 14 22 30.19 1022 10 16 0.00 0.00
11:56 pm 23:56 Clear 24 -4.4 15 -9.4 68 68 NW 9 15 30.19 1022 10 16 0.00 0.00

Powered by AerisWeather